Broomfield, CO

8:34 PM MST on January 19, 2018 (GMT -0700)
Jeffco

Weather History for KBJC - February, 2013

Change the Weather History Date:

Tuesday, February 26, 2013

  Actual Average Record
Temperature  
Mean Temperature 26 °F -  
Max Temperature 32 °F 42 °F 68 °F (1986)
Min Temperature 21 °F 23 °F 3 °F (2002)
Degree Days  
Heating Degree Days 38    
Moisture  
Dew Point 17 °F    
Average Humidity 69    
Maximum Humidity 86    
Minimum Humidity 51    
Precipitation  
Precipitation 0.00 in - - ()
Sea Level Pressure  
Sea Level Pressure 29.86 in    
Wind  
Wind Speed 6 mph (North)    
Max Wind Speed 22 mph    
Max Gust Speed 29 mph    
Visibility 8 miles    
Events Snow    
Averages and records for this station are not official NWS values.
T = Trace of Precipitation, MM = Missing Value Source: NWS Daily Summary

Daily Weather History Graph

Daily Weather History Graph

Search for Another Location

Airport or City:

Trip Planner

Search our weather history database for the weather conditions in past years. The results will help you decide how hot, cold, wet, or windy it might be!

Date:

Astronomy

Feb. 26, 2013 Rise Set
Actual Time 6:37 AM MST 5:49 PM MST
Civil Twilight 6:10 AM MST 6:16 PM MST
Nautical Twilight 5:39 AM MST 6:48 PM MST
Astronomical Twilight 5:07 AM MST 7:19 PM MST
Moon 7:08 PM MST (2/26) 6:41 AM MST (2/26)
Length of Visible Light 12h 06m
Length of Day
11h 11m
Full, 99% of the Moon is Illuminated
Feb 26
Full
Mar 4
Last Quarter
Mar 11
New
Mar 19
First Quarter
Mar 27
Full

Hourly Weather History & Observations

Time (MST) Temp. Windchill Dew Point Humidity Pressure Visibility Wind Dir Wind Speed Gust Speed Precip Events Conditions
12:16 AM 21.2 °F - 14.0 °F 74% 29.78 in 10.0 mi Calm Calm - N/A   Clear
12:36 AM 21.2 °F 16.4 °F 14.0 °F 74% 29.77 in 10.0 mi West 3.5 mph - N/A   Clear
12:56 AM 21.2 °F 13.6 °F 14.0 °F 74% 29.77 in 10.0 mi NNW 5.8 mph - N/A   Clear
1:15 AM 23.0 °F 15.8 °F 14.0 °F 68% 29.77 in 10.0 mi North 5.8 mph - N/A   Clear
1:36 AM 23.0 °F 14.7 °F 14.0 °F 68% 29.76 in 10.0 mi North 6.9 mph - N/A   Clear
1:56 AM 23.0 °F 15.8 °F 14.0 °F 68% 29.76 in 10.0 mi North 5.8 mph - N/A   Clear
2:16 AM 21.2 °F 12.6 °F 14.0 °F 74% 29.76 in 10.0 mi North 6.9 mph - N/A   Clear
2:36 AM 21.2 °F 16.4 °F 14.0 °F 74% 29.76 in 10.0 mi NNE 3.5 mph - N/A   Clear
2:56 AM 21.2 °F - 14.0 °F 74% 29.76 in 10.0 mi Calm Calm - N/A   Clear
3:16 AM 21.2 °F 13.6 °F 14.0 °F 74% 29.75 in 10.0 mi NW 5.8 mph - N/A   Scattered Clouds
3:35 AM 23.0 °F 14.7 °F 14.0 °F 68% 29.75 in 10.0 mi NW 6.9 mph - N/A   Mostly Cloudy
3:55 AM 23.0 °F 14.7 °F 14.0 °F 68% 29.75 in 10.0 mi North 6.9 mph - N/A   Overcast
4:13 AM 23.0 °F 14.7 °F 15.8 °F 74% 29.75 in 10.0 mi NNW 6.9 mph - N/A   Overcast
4:33 AM 23.0 °F - 15.8 °F 74% 29.76 in 10.0 mi Calm Calm - N/A   Overcast
4:53 AM 23.0 °F - 15.8 °F 74% 29.76 in 10.0 mi Calm Calm - N/A   Overcast
5:49 AM 23.0 °F 17.0 °F 15.8 °F 74% 29.78 in 10.0 mi WNW 4.6 mph - N/A   Overcast
6:35 AM 26.6 °F 18.2 °F 15.8 °F 64% 29.78 in 15.0 mi NNW 8.1 mph - N/A   Overcast
6:52 AM 26.6 °F 18.2 °F 15.8 °F 64% 29.78 in 12.0 mi NNW 8.1 mph - N/A   Overcast
7:48 AM 28.4 °F 19.7 °F 15.8 °F 59% 29.80 in 12.0 mi NNE 9.2 mph - N/A   Overcast
8:47 AM 24.8 °F 14.0 °F 17.6 °F 74% 29.82 in 3.0 mi North 11.5 mph - N/A   Overcast
9:10 AM 23.0 °F 13.9 °F 19.4 °F 86% 29.82 in 2.0 mi North 8.1 mph - N/A   Overcast
9:23 AM 24.8 °F 17.9 °F 21.2 °F 86% 29.82 in 0.8 mi NNE 5.8 mph - N/A Snow Light Snow
10:47 AM 26.6 °F 22.6 °F 21.2 °F 80% 29.82 in 0.5 mi West 3.5 mph - N/A Snow Snow
11:48 AM 28.4 °F - 23.0 °F 80% 29.82 in 0.8 mi Calm Calm - N/A Snow Light Snow
12:05 PM 28.4 °F 22.2 °F 24.8 °F 86% 29.81 in 1.5 mi SW 5.8 mph - N/A Snow Light Snow
12:15 PM 28.4 °F 22.2 °F 24.8 °F 86% 29.81 in 5.0 mi WSW 5.8 mph - N/A Snow Light Snow
12:45 PM 30.2 °F 24.3 °F 24.8 °F 80% 29.81 in 10.0 mi WSW 5.8 mph - N/A Snow Light Snow
2:25 PM 30.2 °F 21.9 °F 23.0 °F 75% 29.84 in 2.0 mi NE 9.2 mph - N/A Snow Light Snow
2:49 PM 30.2 °F 23.4 °F 24.8 °F 80% 29.86 in 1.5 mi North 6.9 mph - N/A Snow Light Snow
3:05 PM 30.2 °F 22.6 °F 23.0 °F 75% 29.86 in 5.0 mi North 8.1 mph - N/A Snow Light Snow
3:53 PM 32.0 °F 21.2 °F 17.6 °F 55% 29.87 in 10.0 mi North 16.1 mph 27.6 mph N/A   Overcast
4:53 PM 30.2 °F 19.3 °F 19.4 °F 64% 29.90 in 10.0 mi North 15.0 mph 24.2 mph N/A   Overcast
5:50 PM 30.2 °F 17.4 °F 17.6 °F 60% 29.93 in 10.0 mi North 20.7 mph 28.8 mph N/A   Overcast
6:55 PM 28.4 °F 16.6 °F 17.6 °F 64% 29.98 in 10.0 mi North 16.1 mph - N/A   Overcast
7:55 PM 30.2 °F 17.1 °F 15.8 °F 55% 30.00 in 10.0 mi North 21.9 mph 26.5 mph N/A   Overcast
8:55 PM 28.4 °F 18.0 °F 15.8 °F 59% 30.04 in 10.0 mi North 12.7 mph - N/A   Overcast
9:55 PM 28.4 °F 16.2 °F 14.0 °F 55% 30.06 in 10.0 mi North 17.3 mph - N/A   Overcast
10:16 PM 28.4 °F 15.8 °F 14.0 °F 55% 30.06 in 10.0 mi NNE 18.4 mph - N/A   Overcast
10:34 PM 28.4 °F 16.2 °F 14.0 °F 55% 30.06 in 10.0 mi NNE 17.3 mph - N/A   Overcast
10:56 PM 28.4 °F 16.6 °F 14.0 °F 55% 30.07 in 10.0 mi North 16.1 mph 20.7 mph N/A   Overcast
11:16 PM 28.4 °F 17.5 °F 14.0 °F 55% 30.08 in 10.0 mi North 13.8 mph 19.6 mph N/A   Overcast
11:36 PM 28.4 °F 18.0 °F 12.2 °F 51% 30.09 in 10.0 mi North 12.7 mph 20.7 mph N/A   Overcast
11:56 PM 28.4 °F 20.4 °F 12.2 °F 51% 30.10 in 10.0 mi North 8.1 mph 16.1 mph N/A   Overcast